Location: Hamilton
(37.7830°S, 175.2830°E)
Time: 23:27:39
(UTC+13:00)

Meteor 2-6 Rocket - Pass Details

Date: 24 January 2019
Orbit: 805 x 916 km, 81.3° (Epoch: 17 February)

Event Time Altitude Azimuth Distance (km) Brightness Sun altitude
Exits shadow 23:33:39 50° 113° (ESE) 1,025 4.5 -26.7°
Drops below altitude 10° 23:38:17 10° 161° (SSE) 2,422 7.1 -27.1°
Sets 23:40:45 0° 165° (SSE) 3,368 8.0 -27.4°
